| time (UTC) | temp F | wind direction | speed MPH | gust MPH | rain 1hr in | rain 24hr in | rain mn in | humidity % | barometer mb |
| 20260506160035 | 51 | 298 | 3.0 | 7.0 | 0.00 | 0.44 | 0.07 | 86 | 1016.9 |
| 20260506154529 | 50 | 274 | 0.0 | 7.0 | 0.00 | 0.44 | 0.07 | 87 | 1016.6 |
| 20260506153026 | 50 | 261 | 0.0 | 2.0 | 0.00 | 0.44 | 0.07 | 91 | 1016.5 |
| 20260506151525 | 49 | 261 | 0.0 | 5.0 | 0.00 | 0.44 | 0.07 | 92 | 1016.4 |
| 20260506150022 | 49 | 296 | 1.0 | 7.0 | 0.00 | 0.44 | 0.07 | 93 | 1016.4 |
| 20260506144522 | 49 | 268 | 1.0 | 5.0 | 0.00 | 0.44 | 0.07 | 93 | 1016.3 |
| 20260506143020 | 48 | 355 | 0.0 | 7.0 | 0.00 | 0.44 | 0.07 | 94 | 1016.2 |
| 20260506141518 | 48 | 341 | 1.0 | 7.0 | 0.00 | 0.44 | 0.07 | 94 | 1016.2 |
| 20260506140019 | 47 | 317 | 1.0 | 6.0 | 0.00 | 0.44 | 0.07 | 94 | 1016.4 |
| 20260506134513 | 47 | 248 | 0.0 | 9.0 | 0.00 | 0.46 | 0.07 | 94 | 1016.3 |
| 20260506133015 | 47 | 261 | 1.0 | 9.0 | 0.00 | 0.46 | 0.07 | 94 | 1016.3 |
| 20260506131513 | 47 | 275 | 1.0 | 7.0 | 0.00 | 0.46 | 0.07 | 94 | 1016.2 |
| 20260506130008 | 46 | 263 | 0.0 | 4.0 | 0.00 | 0.46 | 0.07 | 94 | 1015.9 |
| 20260506124507 | 46 | 295 | 0.0 | 3.0 | 0.00 | 0.53 | 0.07 | 94 | 1015.6 |
| 20260506123006 | 46 | 257 | 0.0 | 1.0 | 0.00 | 0.53 | 0.07 | 94 | 1015.9 |
| 20260506121505 | 46 | 310 | 0.0 | 3.0 | 0.00 | 0.53 | 0.07 | 94 | 1015.6 |
| 20260506120003 | 46 | 267 | 0.0 | 7.0 | 0.00 | 0.63 | 0.07 | 94 | 1015.5 |
| 20260506114505 | 46 | 205 | 0.0 | 3.0 | 0.00 | 0.63 | 0.07 | 94 | 1015.5 |
| 20260506113100 | 46 | 360 | 0.0 | 3.0 | 0.00 | 0.63 | 0.07 | 94 | 1015.3 |
| 20260506111557 | 46 | 256 | 0.0 | 3.0 | 0.00 | 0.63 | 0.07 | 94 | 1014.9 |
| 20260506110054 | 45 | 272 | 0.0 | 0.0 | 0.00 | 0.63 | 0.07 | 94 | 1014.2 |
| 20260506104559 | 45 | 272 | 0.0 | 1.0 | 0.00 | 0.66 | 0.07 | 94 | 1014.0 |
| 20260506103054 | 45 | 272 | 0.0 | 1.0 | 0.00 | 0.66 | 0.07 | 94 | 1013.3 |
| 20260506101552 | 45 | 276 | 0.0 | 3.0 | 0.00 | 0.66 | 0.07 | 94 | 1013.7 |
| 20260506100105 | 45 | 275 | 0.0 | 5.0 | 0.00 | 0.66 | 0.07 | 94 | 1013.4 |
| 20260506094550 | 45 | 316 | 1.0 | 3.0 | 0.00 | 0.67 | 0.07 | 94 | 1013.5 |
| 20260506093049 | 45 | 313 | 0.0 | 2.0 | 0.00 | 0.67 | 0.07 | 94 | 1013.3 |
| 20260506091553 | 45 | 317 | 0.0 | 2.0 | 0.00 | 0.67 | 0.07 | 94 | 1013.4 |
| 20260506090047 | 45 | 257 | 2.0 | 7.0 | 0.00 | 0.67 | 0.07 | 94 | 1013.9 |
| 20260506084544 | 46 | 261 | 0.0 | 6.0 | 0.01 | 0.67 | 0.07 | 94 | 1013.5 |
| 20260506083044 | 46 | 290 | 0.0 | 4.0 | 0.01 | 0.67 | 0.07 | 94 | 1013.4 |
| 20260506081543 | 46 | 248 | 0.0 | 4.0 | 0.01 | 0.67 | 0.07 | 94 | 1013.5 |
| 20260506073038 | 46 | 340 | 0.0 | 2.0 | 0.02 | 0.66 | 0.06 | 94 | 1012.9 |
| 20260506071537 | 46 | 272 | 0.0 | 4.0 | 0.02 | 0.66 | 0.06 | 94 | 1013.2 |
| 20260506061531 | 46 | 355 | 0.0 | 0.0 | 0.03 | 0.64 | 0.04 | 93 | 1013.0 |
| 20260506044529 | 45 | 333 | 0.0 | 0.0 | 0.01 | 0.60 | 0.60 | 93 | 1012.5 |
| 20260506043022 | 45 | 289 | 0.0 | 0.0 | 0.01 | 0.59 | 0.59 | 93 | 1012.5 |
| 20260506041521 | 45 | 290 | 0.0 | 1.0 | 0.01 | 0.59 | 0.59 | 93 | 1012.8 |
| 20260506040020 | 45 | 233 | 0.0 | 3.0 | 0.01 | 0.59 | 0.59 | 93 | 1012.8 |
| 20260506034520 | 45 | 279 | 0.0 | 2.0 | 0.01 | 0.59 | 0.59 | 93 | 1013.1 |
| 20260506033023 | 45 | 37 | 0.0 | 1.0 | 0.00 | 0.57 | 0.57 | 93 | 1013.1 |
| 20260506031527 | 45 | 37 | 0.0 | 1.0 | 0.00 | 0.57 | 0.57 | 93 | 1012.3 |
| 20260506030037 | 45 | 37 | 0.0 | 2.0 | 0.01 | 0.57 | 0.57 | 93 | 1012.3 |
| 20260506024523 | 44 | 27 | 0.0 | 3.0 | 0.04 | 0.57 | 0.57 | 93 | 1011.8 |
| 20260506023013 | 44 | 300 | 0.0 | 2.0 | 0.05 | 0.57 | 0.57 | 93 | 1012.4 |
| 20260506021511 | 44 | 19 | 0.0 | 1.0 | 0.09 | 0.57 | 0.57 | 93 | 1012.0 |
| 20260506020010 | 44 | 266 | 0.0 | 1.0 | 0.09 | 0.56 | 0.56 | 93 | 1012.2 |
| 20260506014509 | 45 | 17 | 0.0 | 2.0 | 0.10 | 0.54 | 0.54 | 92 | 1012.0 |
| 20260506013006 | 44 | 106 | 1.0 | 6.0 | 0.11 | 0.52 | 0.52 | 92 | 1010.5 |
| 20260506011504 | 44 | 5 | 0.0 | 4.0 | 0.09 | 0.49 | 0.49 | 92 | 1011.4 |
| 20260506010005 | 45 | 28 | 0.0 | 6.0 | 0.08 | 0.48 | 0.48 | 92 | 1011.3 |
| 20260506004559 | 45 | 16 | 0.0 | 9.0 | 0.06 | 0.44 | 0.44 | 92 | 1011.0 |
| 20260506003057 | 45 | 23 | 3.0 | 8.0 | 0.05 | 0.41 | 0.41 | 92 | 1010.9 |
| 20260506001558 | 46 | 24 | 2.0 | 5.0 | 0.11 | 0.40 | 0.40 | 92 | 1010.4 |
| 20260506000058 | 46 | 22 | 2.0 | 6.0 | 0.12 | 0.40 | 0.40 | 92 | 1010.4 |
| 20260505234551 | 46 | 5 | 1.0 | 5.0 | 0.10 | 0.38 | 0.38 | 91 | 1010.4 |
| 20260505233057 | 46 | 31 | 2.0 | 10.0 | 0.10 | 0.36 | 0.36 | 91 | 1009.8 |
| 20260505231547 | 47 | 42 | 2.0 | 9.0 | 0.04 | 0.28 | 0.28 | 91 | 1010.4 |
| 20260505230049 | 47 | 348 | 0.0 | 9.0 | 0.03 | 0.28 | 0.28 | 91 | 1009.8 |
| 20260505224547 | 47 | 333 | 1.0 | 9.0 | 0.03 | 0.28 | 0.28 | 90 | 1009.7 |
| 20260505223044 | 47 | 19 | 0.0 | 5.0 | 0.01 | 0.26 | 0.26 | 90 | 1009.2 |
| 20260505221541 | 47 | 17 | 0.0 | 4.0 | 0.00 | 0.25 | 0.25 | 90 | 1009.5 |
| 20260505220044 | 47 | 12 | 0.0 | 7.0 | 0.01 | 0.25 | 0.25 | 90 | 1009.3 |
| 20260505214540 | 47 | 29 | 1.0 | 9.0 | 0.01 | 0.25 | 0.25 | 90 | 1009.6 |
| 20260505213045 | 47 | 42 | 1.0 | 8.0 | 0.01 | 0.25 | 0.25 | 90 | 1009.6 |
| 20260505211542 | 47 | 11 | 3.0 | 9.0 | 0.01 | 0.25 | 0.25 | 89 | 1009.6 |
| 20260505210035 | 48 | 58 | 1.0 | 6.0 | 0.00 | 0.24 | 0.24 | 88 | 1010.2 |
| 20260505204535 | 48 | 42 | 0.0 | 10.0 | 0.00 | 0.24 | 0.24 | 87 | 1010.1 |
| 20260505203037 | 48 | 332 | 2.0 | 8.0 | 0.00 | 0.24 | 0.24 | 86 | 1010.1 |
| 20260505201534 | 48 | 24 | 6.0 | 15.0 | 0.00 | 0.24 | 0.24 | 86 | 1009.7 |
| 20260505200029 | 48 | 355 | 1.0 | 12.0 | 0.00 | 0.24 | 0.24 | 85 | 1010.5 |
| 20260505194528 | 49 | 11 | 3.0 | 11.0 | 0.00 | 0.24 | 0.24 | 84 | 1010.3 |
| 20260505193026 | 49 | 342 | 3.0 | 10.0 | 0.00 | 0.24 | 0.24 | 82 | 1010.5 |
| 20260505191527 | 50 | 350 | 2.0 | 12.0 | 0.00 | 0.24 | 0.24 | 80 | 1010.2 |
| 20260505190035 | 51 | 5 | 6.0 | 14.0 | 0.00 | 0.24 | 0.24 | 78 | 1009.9 |
| 20260505184528 | 51 | 344 | 2.0 | 12.0 | 0.00 | 0.33 | 0.24 | 79 | 1009.7 |
| 20260505183026 | 52 | 75 | 0.0 | 5.0 | 0.00 | 0.33 | 0.24 | 81 | 1010.4 |
| 20260505181523 | 52 | 16 | 0.0 | 8.0 | 0.00 | 0.33 | 0.24 | 81 | 1010.3 |
| 20260505180033 | 52 | 320 | 0.0 | 13.0 | 0.00 | 0.33 | 0.24 | 80 | 1010.5 |
| 20260505174521 | 52 | 10 | 0.0 | 10.0 | 0.01 | 0.34 | 0.24 | 80 | 1010.5 |
| 20260505173019 | 53 | 283 | 0.0 | 1.0 | 0.01 | 0.34 | 0.24 | 81 | 1010.5 |
| 20260505171519 | 53 | 355 | 0.0 | 4.0 | 0.01 | 0.34 | 0.24 | 79 | 1010.5 |
| 20260505170018 | 54 | 19 | 0.0 | 5.0 | 0.01 | 0.34 | 0.24 | 77 | 1010.0 |
| 20260505164515 | 54 | 61 | 0.0 | 4.0 | 0.00 | 0.34 | 0.23 | 75 | 1009.6 |
| 20260505163015 | 54 | 22 | 0.0 | 7.0 | 0.00 | 0.34 | 0.23 | 73 | 1009.7 |
| 20260505161516 | 54 | 87 | 0.0 | 5.0 | 0.00 | 0.34 | 0.23 | 75 | 1009.6 |